DLH455 KSFO-EDDF

Flight info

Callsign DLH455
Flight time N/A
Altitude 35000
Route SNTNA2 DEDHD DCT ILA DCT ILR DCT GTF DCT 50N106W DCT POPLR DCT 55N090W DCT KEMSA/N0472F370 DCT FASSA DCT IRBIM/M081F370 DCT TOXIT DCT 59N050W 59N040W 59N030W 57N020W DCT PIKIL/N0470F370 DCT SOVED DCT REVNU/N0470F390 DCT OLAPO DCT DEXEN UY124 DOLOP DCT KEPAD L15 FINMA DCT CHT DCT ITVIP DCT KONAN DCT KOK UL607 FERDI DCT REMBA DCT SPI T180 NIVNU/N0398F230 T847 IMCOM IMCOM1A
Aircraft A346/H-SDE2E3FGHIJ3J4J5M1RWXY/LB1D1

Departure

Time N/A
Airport San Francisco International Airport (KSFO)

Arrival

Time 2026-04-16 08:34
Airport Frankfurt Main Airport (EDDF)
Time Latitude Longitude Altitude Speed Heading
2026-04-16 07:34 52.37756 -1.70111 39047 ft 506 kts 137°
2026-04-16 07:34 52.35364 -1.65876 39048 ft 506 kts 138°
2026-04-16 07:35 52.30539 -1.57584 39053 ft 505 kts 139°
2026-04-16 07:35 52.25662 -1.49299 39024 ft 506 kts 139°
2026-04-16 07:36 52.20762 -1.40987 39047 ft 507 kts 139°
2026-04-16 07:36 52.16692 -1.34086 39050 ft 507 kts 139°
2026-04-16 07:37 52.11792 -1.25800 39052 ft 507 kts 139°
2026-04-16 07:37 52.06882 -1.17526 39060 ft 507 kts 139°
2026-04-16 07:38 52.01996 -1.09327 39055 ft 508 kts 139°
2026-04-16 07:38 51.96902 -1.01405 39075 ft 505 kts 143°
2026-04-16 07:39 51.91638 -0.93823 39078 ft 505 kts 143°
2026-04-16 07:39 51.86407 -0.86295 39092 ft 505 kts 143°
2026-04-16 07:40 51.81143 -0.78735 39095 ft 505 kts 143°
2026-04-16 07:40 51.75868 -0.71179 39084 ft 506 kts 144°
2026-04-16 07:41 51.70582 -0.63639 39099 ft 507 kts 144°
2026-04-16 07:41 51.65629 -0.55439 39102 ft 514 kts 133°
2026-04-16 07:42 51.61620 -0.45905 39097 ft 520 kts 122°
2026-04-16 07:42 51.58696 -0.35177 39108 ft 524 kts 111°
2026-04-16 07:43 51.56418 -0.24015 39099 ft 525 kts 110°
2026-04-16 07:43 51.54141 -0.12819 39106 ft 526 kts 110°
2026-04-16 07:44 51.51835 -0.01737 39082 ft 526 kts 111°
2026-04-16 07:44 51.49493 0.09369 39129 ft 525 kts 111°
2026-04-16 07:45 51.47134 0.20487 39133 ft 525 kts 111°
2026-04-16 07:45 51.44765 0.31591 39129 ft 525 kts 111°
2026-04-16 07:46 51.42384 0.42685 39134 ft 525 kts 111°
2026-04-16 07:46 51.40012 0.53682 39132 ft 524 kts 111°
2026-04-16 07:47 51.37619 0.64720 39132 ft 523 kts 111°
2026-04-16 07:47 51.35220 0.75727 39135 ft 523 kts 111°
2026-04-16 07:48 51.32808 0.86737 39116 ft 524 kts 111°
2026-04-16 07:48 51.30377 0.97762 39152 ft 525 kts 111°
2026-04-16 07:49 51.28123 1.08782 39164 ft 525 kts 106°
2026-04-16 07:49 51.26285 1.20081 39169 ft 525 kts 105°
2026-04-16 07:50 51.24470 1.31384 39169 ft 525 kts 105°
2026-04-16 07:50 51.22629 1.42681 39176 ft 525 kts 105°
2026-04-16 07:51 51.20776 1.53930 39176 ft 523 kts 105°
2026-04-16 07:51 51.18926 1.65097 39178 ft 522 kts 105°
2026-04-16 07:52 51.17056 1.76313 39182 ft 522 kts 105°
2026-04-16 07:52 51.15175 1.87509 39181 ft 522 kts 106°
2026-04-16 07:53 51.13453 1.98680 39185 ft 521 kts 101°
2026-04-16 07:53 51.12484 2.10122 39185 ft 520 kts 94°
2026-04-16 07:54 51.11935 2.21651 39184 ft 520 kts 94°
2026-04-16 07:54 51.11379 2.33167 39188 ft 520 kts 94°
2026-04-16 07:55 51.10789 2.44639 39186 ft 519 kts 94°
2026-04-16 07:55 51.10182 2.56028 39189 ft 518 kts 95°
2026-04-16 07:56 51.09146 2.67410 39194 ft 518 kts 102°
2026-04-16 07:56 51.07303 2.78533 39194 ft 518 kts 107°
2026-04-16 07:57 51.05256 2.89459 39182 ft 517 kts 107°
2026-04-16 07:57 51.03206 3.00417 39185 ft 516 kts 107°
2026-04-16 07:58 51.01159 3.11377 39190 ft 516 kts 107°
2026-04-16 07:58 50.99107 3.22326 39193 ft 516 kts 107°
2026-04-16 07:59 50.97057 3.33208 39192 ft 515 kts 107°
2026-04-16 07:59 50.94992 3.44103 39194 ft 514 kts 107°
2026-04-16 08:00 50.92916 3.55000 39155 ft 515 kts 108°
2026-04-16 08:00 50.91873 3.60441 38923 ft 515 kts 108°
2026-04-16 08:00 50.90842 3.65811 38663 ft 516 kts 107°
2026-04-16 08:00 50.89800 3.71273 38380 ft 516 kts 107°
2026-04-16 08:01 50.88757 3.76743 38107 ft 517 kts 107°
2026-04-16 08:01 50.87715 3.82200 37831 ft 517 kts 108°
2026-04-16 08:01 50.86670 3.87657 37560 ft 517 kts 108°
2026-04-16 08:01 50.85621 3.93115 37285 ft 518 kts 108°
2026-04-16 08:02 50.84564 3.98597 37024 ft 519 kts 108°
2026-04-16 08:02 50.82446 4.09537 36494 ft 521 kts 108°
2026-04-16 08:02 50.81390 4.14962 36250 ft 522 kts 108°
2026-04-16 08:03 50.80318 4.20461 36003 ft 522 kts 108°
2026-04-16 08:03 50.79242 4.25948 35716 ft 523 kts 108°
2026-04-16 08:03 50.78161 4.31459 35461 ft 523 kts 108°
2026-04-16 08:03 50.77079 4.36962 35242 ft 524 kts 108°
2026-04-16 08:04 50.74901 4.47990 35213 ft 525 kts 108°
2026-04-16 08:04 50.72712 4.59013 35208 ft 525 kts 108°
2026-04-16 08:05 50.70526 4.69955 35208 ft 524 kts 108°
2026-04-16 08:05 50.68320 4.80940 35214 ft 524 kts 108°
2026-04-16 08:06 50.66102 4.91918 35211 ft 523 kts 108°
2026-04-16 08:06 50.63866 5.02837 35211 ft 523 kts 108°
2026-04-16 08:07 50.61612 5.13760 35212 ft 523 kts 108°
2026-04-16 08:07 50.59350 5.24679 35208 ft 523 kts 109°
2026-04-16 08:08 50.57098 5.35502 35210 ft 523 kts 109°
2026-04-16 08:08 50.54817 5.46408 34876 ft 524 kts 109°
2026-04-16 08:09 50.53671 5.51862 34624 ft 525 kts 109°
2026-04-16 08:09 50.52521 5.57318 34289 ft 525 kts 109°
2026-04-16 08:09 50.51379 5.62791 33787 ft 527 kts 107°
2026-04-16 08:09 50.50328 5.68302 33222 ft 524 kts 106°
2026-04-16 08:10 50.49304 5.73786 32682 ft 521 kts 106°
2026-04-16 08:10 50.48289 5.79242 32112 ft 518 kts 106°
2026-04-16 08:10 50.47275 5.84676 31538 ft 517 kts 106°
2026-04-16 08:10 50.46260 5.90096 30943 ft 516 kts 106°
2026-04-16 08:11 50.45239 5.95523 30306 ft 517 kts 106°
2026-04-16 08:11 50.44219 6.00922 29564 ft 517 kts 107°
2026-04-16 08:11 50.43192 6.06331 28873 ft 516 kts 107°
2026-04-16 08:11 50.42164 6.11737 28188 ft 515 kts 107°
2026-04-16 08:12 50.41137 6.17119 27501 ft 514 kts 107°
2026-04-16 08:12 50.40125 6.22414 26906 ft 511 kts 107°
2026-04-16 08:12 50.39103 6.27734 26502 ft 507 kts 107°
2026-04-16 08:12 50.38086 6.33014 26074 ft 503 kts 107°
2026-04-16 08:13 50.37120 6.38272 25608 ft 499 kts 105°
2026-04-16 08:13 50.36378 6.43574 25165 ft 495 kts 100°
2026-04-16 08:13 50.35879 6.48898 24829 ft 492 kts 96°
2026-04-16 08:13 50.35542 6.54227 24418 ft 489 kts 95°
2026-04-16 08:14 50.35241 6.59516 23979 ft 485 kts 95°
2026-04-16 08:14 50.34938 6.64759 23495 ft 481 kts 95°
2026-04-16 08:14 50.34619 6.69951 23024 ft 476 kts 96°
2026-04-16 08:14 50.34291 6.75091 22564 ft 472 kts 96°
2026-04-16 08:15 50.33965 6.80186 22114 ft 467 kts 97°
2026-04-16 08:15 50.33407 6.85177 21665 ft 462 kts 104°
2026-04-16 08:15 50.32466 6.89967 21238 ft 456 kts 112°
2026-04-16 08:15 50.31211 6.94502 20822 ft 451 kts 116°
2026-04-16 08:16 50.29868 6.98923 20375 ft 448 kts 117°
2026-04-16 08:16 50.28547 7.03237 19948 ft 444 kts 117°
2026-04-16 08:16 50.27228 7.07589 19520 ft 440 kts 117°
2026-04-16 08:16 50.25924 7.11919 19079 ft 437 kts 116°
2026-04-16 08:17 50.24635 7.16215 18640 ft 433 kts 116°
2026-04-16 08:17 50.23360 7.20467 18176 ft 430 kts 116°
2026-04-16 08:17 50.22093 7.24684 17716 ft 425 kts 116°
2026-04-16 08:17 50.20996 7.28979 17295 ft 430 kts 104°
2026-04-16 08:18 50.20671 7.33581 16917 ft 430 kts 91°
2026-04-16 08:19 50.20283 7.65576 14291 ft 411 kts 92°
2026-04-16 08:20 50.20164 7.69967 13934 ft 408 kts 92°
2026-04-16 08:20 50.20041 7.74388 13524 ft 406 kts 92°
2026-04-16 08:20 50.19917 7.78788 13132 ft 402 kts 92°
2026-04-16 08:20 50.19793 7.83147 12868 ft 400 kts 92°
2026-04-16 08:21 50.19665 7.87479 12602 ft 398 kts 92°
2026-04-16 08:21 50.19537 7.91786 12345 ft 396 kts 92°
2026-04-16 08:21 50.19409 7.96072 12090 ft 394 kts 92°
2026-04-16 08:21 50.19280 8.00325 11832 ft 392 kts 92°
2026-04-16 08:22 50.19151 8.04575 11582 ft 390 kts 92°
2026-04-16 08:22 50.19019 8.08806 11330 ft 389 kts 92°
2026-04-16 08:22 50.18889 8.12929 11078 ft 379 kts 92°
2026-04-16 08:22 50.18758 8.16983 10821 ft 368 kts 92°
2026-04-16 08:23 50.18630 8.20928 10576 ft 359 kts 92°
2026-04-16 08:23 50.18504 8.24758 10425 ft 346 kts 92°
2026-04-16 08:23 50.18381 8.28469 10295 ft 334 kts 92°
2026-04-16 08:23 50.18259 8.32026 10227 ft 320 kts 92°
2026-04-16 08:24 50.18183 8.34289 10227 ft 309 kts 92°
2026-04-16 08:24 50.18074 8.37605 10001 ft 303 kts 92°
2026-04-16 08:24 50.17940 8.41918 9583 ft 297 kts 91°
2026-04-16 08:24 50.17847 8.45133 9288 ft 293 kts 91°
2026-04-16 08:25 50.17788 8.47234 9063 ft 290 kts 91°
2026-04-16 08:25 50.17708 8.50379 8694 ft 289 kts 91°
2026-04-16 08:25 50.17649 8.53513 8336 ft 287 kts 91°
2026-04-16 08:25 50.17610 8.56627 7963 ft 286 kts 90°
2026-04-16 08:26 50.17592 8.59735 7606 ft 286 kts 89°
2026-04-16 08:26 50.17595 8.62842 7257 ft 285 kts 89°
2026-04-16 08:26 50.17619 8.65900 6918 ft 284 kts 88°
2026-04-16 08:26 50.17662 8.68983 6549 ft 283 kts 88°
2026-04-16 08:27 50.17725 8.72044 6172 ft 282 kts 88°
2026-04-16 08:27 50.17802 8.75102 5828 ft 281 kts 87°
2026-04-16 08:27 50.17892 8.78139 5480 ft 279 kts 87°
2026-04-16 08:27 50.17987 8.81154 5136 ft 278 kts 88°
2026-04-16 08:28 50.17955 8.84172 4757 ft 277 kts 97°
2026-04-16 08:28 50.17338 8.86977 4420 ft 272 kts 126°
2026-04-16 08:28 50.15966 8.88837 4290 ft 260 kts 157°
2026-04-16 08:28 50.14245 8.89304 4113 ft 248 kts 189°
2026-04-16 08:29 50.12687 8.88388 4009 ft 232 kts 212°
2026-04-16 08:29 50.11389 8.87034 3983 ft 217 kts 223°
2026-04-16 08:29 50.10469 8.85308 3943 ft 202 kts 240°
2026-04-16 08:29 50.09904 8.83351 3854 ft 190 kts 251°
2026-04-16 08:30 50.09491 8.81454 3636 ft 185 kts 251°
2026-04-16 08:30 50.09053 8.79574 3351 ft 184 kts 250°
2026-04-16 08:30 50.08593 8.77703 3043 ft 184 kts 249°
2026-04-16 08:30 50.08131 8.75850 2747 ft 181 kts 249°
2026-04-16 08:31 50.07675 8.74057 2508 ft 173 kts 249°
2026-04-16 08:31 50.07317 8.72349 2283 ft 160 kts 258°
2026-04-16 08:31 50.07169 8.70677 2033 ft 151 kts 262°
2026-04-16 08:31 50.06951 8.69067 1814 ft 152 kts 252°
2026-04-16 08:32 50.06608 8.67519 1641 ft 150 kts 250°
2026-04-16 08:32 50.06259 8.65983 1411 ft 150 kts 249°
2026-04-16 08:32 50.05883 8.64475 1214 ft 149 kts 249°
2026-04-16 08:32 50.05526 8.62980 1002 ft 149 kts 248°
2026-04-16 08:33 50.05171 8.61469 783 ft 147 kts 248°
2026-04-16 08:33 50.04820 8.59967 588 ft 148 kts 247°
2026-04-16 08:33 50.04462 8.58490 406 ft 144 kts 247°
2026-04-16 08:33 50.04147 8.57170 377 ft 105 kts 250°
2026-04-16 08:34 50.03958 8.56374 365 ft 54 kts 250°
2026-04-16 08:34 50.03885 8.56055 364 ft 21 kts 256°
2026-04-16 08:34 50.03888 8.55821 361 ft 17 kts 279°
2026-04-16 08:34 50.03907 8.55667 360 ft 9 kts 284°
2026-04-16 08:35 50.03938 8.55603 362 ft 8 kts 344°
2026-04-16 08:35 50.03981 8.55663 364 ft 11 kts 72°
2026-04-16 08:35 50.04010 8.55786 363 ft 13 kts 68°
2026-04-16 08:35 50.04043 8.55925 361 ft 10 kts 69°
2026-04-16 08:36 50.04100 8.55962 364 ft 11 kts 348°
2026-04-16 08:36 50.04175 8.55923 363 ft 8 kts 341°
2026-04-16 08:36 50.04234 8.55931 364 ft 10 kts 30°
2026-04-16 08:36 50.04307 8.55947 368 ft 12 kts 345°
2026-04-16 08:37 50.04380 8.55912 370 ft 10 kts 349°
2026-04-16 08:37 50.04461 8.55924 366 ft 13 kts 15°
2026-04-16 08:37 50.04541 8.55964 368 ft 5 kts 18°
2026-04-16 08:37 50.04580 8.55977 369 ft 7 kts 357°
2026-04-16 08:38 50.04617 8.55960 369 ft 3 kts 340°
2026-04-16 08:38 50.04637 8.55948 368 ft 2 kts 339°
2026-04-16 08:38 50.04641 8.55946 370 ft 0 kts 339°